Flag for Canada Weather past 2 weeks in Belleville, Ontario, Canada

Now
28 °F

Clear.


Feels Like: 22 °F
Forecast: 26 / 39 °F
Wind: 6 mph from Northwest

Location: Trenton

Current Time: Mar 31, 2015 at 6:22:01 AM

Latest Report: Mar 31, 2015 at 6:00 AM


Visibility: 15 mi

Pressure: 29.86 "Hg

Humidity: 86%

Dew point: 25 °F

Location of BellevilleLocation

Historic Weather in Belleville — Graph

°F

Belleville temperature yesterday

Maximum temperature yesterday: 45 °F (at 3:00 PM)
Minimum temperature yesterday: 34 °F (at 1:00 AM)
Average temperature yesterday: 38 °F

Past Weeks' High & Low Weather Summary

 TemperatureHumidityPressure
High45 °F (Mar 30, 3:00 PM)100% (Mar 16, 5:00 AM)30.42 "Hg (Mar 16, 5:00 AM)
Low9 °F (Mar 23, 6:00 AM)25% (Mar 28, 6:00 PM)29.56 "Hg (Mar 30, 6:00 AM)
Average29 °F69%30.06 "Hg
* Reported Mar 16 5:00 AM — Mar 31 5:00 AM, Belleville, Weather by CustomWeather, © 2015

Note: Actual official high and low records may vary slightly from our data, if they occured in-between our weather recording intervals... More about our weather records

Advertising

Belleville weather history for previous 24 hours

 ConditionsComfort  
Time TempWeatherWind HumidityBarometerVisibility
5:00 AM
Tue, Mar 31
30 °FClear.8 mph80%29.85 "Hg15 mi
4:00 AM30 °FClear.9 mph86%29.84 "Hg15 mi
3:00 AM32 °FClear.10 mph80%29.84 "Hg15 mi
2:00 AM34 °FPassing clouds.14 mph81%29.85 "Hg15 mi
1:00 AM34 °FPassing clouds.14 mph81%29.85 "Hg15 mi
12:00 AM34 °FPassing clouds.12 mph81%29.84 "Hg15 mi
11:00 PM
Mon, Mar 30
36 °FPassing clouds.13 mph75%29.83 "Hg15 mi
10:00 PM37 °FPassing clouds.14 mph70%29.82 "Hg15 mi
9:00 PM37 °FPassing clouds.13 mph70%29.81 "Hg15 mi
8:00 PM39 °FPartly sunny.18 mph61%29.78 "Hg15 mi
7:00 PM41 °FScattered clouds.12 mph57%29.76 "Hg15 mi
6:00 PM43 °FScattered clouds.20 mph53%29.73 "Hg15 mi
5:00 PM45 °FBroken clouds.15 mph49%29.72 "Hg15 mi
4:00 PM45 °FBroken clouds.25 mph46%29.70 "Hg15 mi
3:00 PM45 °FPartly sunny.24 mph57%29.69 "Hg15 mi
2:00 PM43 °FPartly sunny.21 mph57%29.69 "Hg15 mi
1:00 PM41 °FOvercast.15 mph66%29.67 "Hg15 mi
12:00 PM39 °FOvercast.16 mph70%29.66 "Hg15 mi
11:00 AM39 °FOvercast.22 mph70%29.63 "Hg12 mi
10:00 AM37 °FDrizzle. Overcast.17 mph75%29.61 "Hg12 mi
9:00 AM37 °FMostly cloudy.18 mph87%29.58 "Hg12 mi
8:00 AM37 °FOvercast.13 mph93%29.56 "Hg9 mi
7:00 AM37 °FLow clouds.16 mph93%29.56 "Hg9 mi
6:00 AM36 °FLight rain. Low clouds.8 mph93%29.56 "Hg5 mi
Weather by CustomWeather, © 2015

See weather overviewHow to use our weather pages